Year,Month,Day,Hour,Minute,Value (Times are PST for insolation in W/m^2)
2012,08,08,00,00,0.00
2012,08,08,00,01,0.00
2012,08,08,00,02,0.00
2012,08,08,00,03,0.00
2012,08,08,00,04,0.00
2012,08,08,00,05,0.00
2012,08,08,00,06,0.00
2012,08,08,00,07,0.00
2012,08,08,00,08,0.00
2012,08,08,00,09,0.00
2012,08,08,00,10,0.00
2012,08,08,00,11,0.00
2012,08,08,00,12,0.00
2012,08,08,00,13,0.00
2012,08,08,00,14,0.00
2012,08,08,00,15,0.00
2012,08,08,00,16,0.00
2012,08,08,00,17,0.00
2012,08,08,00,18,0.00
2012,08,08,00,19,0.00
2012,08,08,00,20,0.00
2012,08,08,00,21,0.00
2012,08,08,00,22,0.00
2012,08,08,00,23,0.00
2012,08,08,00,24,0.00
2012,08,08,00,25,0.00
2012,08,08,00,26,0.00
2012,08,08,00,27,0.00
2012,08,08,00,28,0.00
2012,08,08,00,29,0.00
2012,08,08,00,30,0.00
2012,08,08,00,31,0.00
2012,08,08,00,32,0.00
2012,08,08,00,33,0.00
2012,08,08,00,34,0.00
2012,08,08,00,35,0.00
2012,08,08,00,36,0.00
2012,08,08,00,37,0.00
2012,08,08,00,38,0.00
2012,08,08,00,39,0.00
2012,08,08,00,40,0.00
2012,08,08,00,41,0.00
2012,08,08,00,42,0.00
2012,08,08,00,43,0.00
2012,08,08,00,44,0.00
2012,08,08,00,45,0.00
2012,08,08,00,46,0.00
2012,08,08,00,47,0.00
2012,08,08,00,48,0.00
2012,08,08,00,49,0.00
2012,08,08,00,50,0.00
2012,08,08,00,51,0.00
2012,08,08,00,52,0.00
2012,08,08,00,53,0.00
2012,08,08,00,54,0.00
2012,08,08,00,55,0.00
2012,08,08,00,56,0.00
2012,08,08,00,57,0.00
2012,08,08,00,58,0.00
2012,08,08,00,59,0.00
2012,08,08,01,00,0.00
2012,08,08,01,01,0.00
2012,08,08,01,02,0.00
2012,08,08,01,03,0.00
2012,08,08,01,04,0.00
2012,08,08,01,05,0.00
2012,08,08,01,06,0.00
2012,08,08,01,07,0.00
2012,08,08,01,08,0.00
2012,08,08,01,09,0.00
2012,08,08,01,10,0.00
2012,08,08,01,11,0.00
2012,08,08,01,12,0.00
2012,08,08,01,13,0.00
2012,08,08,01,14,0.00
2012,08,08,01,15,0.00
2012,08,08,01,16,0.00
2012,08,08,01,17,0.00
2012,08,08,01,18,0.00
2012,08,08,01,19,0.00
2012,08,08,01,20,0.00
2012,08,08,01,21,0.00
2012,08,08,01,22,0.00
2012,08,08,01,23,0.00
2012,08,08,01,24,0.00
2012,08,08,01,25,0.00
2012,08,08,01,26,0.00
2012,08,08,01,27,0.00
2012,08,08,01,28,0.00
2012,08,08,01,29,0.00
2012,08,08,01,30,0.00
2012,08,08,01,31,0.00
2012,08,08,01,32,0.00
2012,08,08,01,33,0.00
2012,08,08,01,34,0.00
2012,08,08,01,35,0.00
2012,08,08,01,36,0.00
2012,08,08,01,37,0.00
2012,08,08,01,38,0.00
2012,08,08,01,39,0.00
2012,08,08,01,40,0.00
2012,08,08,01,41,0.00
2012,08,08,01,42,0.00
2012,08,08,01,43,0.00
2012,08,08,01,44,0.00
2012,08,08,01,45,0.00
2012,08,08,01,46,0.00
2012,08,08,01,47,0.00
2012,08,08,01,48,0.00
2012,08,08,01,49,0.00
2012,08,08,01,50,0.00
2012,08,08,01,51,0.00
2012,08,08,01,52,0.00
2012,08,08,01,53,0.00
2012,08,08,01,54,0.00
2012,08,08,01,55,0.00
2012,08,08,01,56,0.00
2012,08,08,01,57,0.00
2012,08,08,01,58,0.00
2012,08,08,01,59,0.00
2012,08,08,02,00,0.00
2012,08,08,02,01,0.00
2012,08,08,02,02,0.00
2012,08,08,02,03,0.00
2012,08,08,02,04,0.00
2012,08,08,02,05,0.00
2012,08,08,02,06,0.00
2012,08,08,02,07,0.00
2012,08,08,02,08,0.00
2012,08,08,02,09,0.00
2012,08,08,02,10,0.00
2012,08,08,02,11,0.00
2012,08,08,02,12,0.00
2012,08,08,02,13,0.00
2012,08,08,02,14,0.00
2012,08,08,02,15,0.00
2012,08,08,02,16,0.00
2012,08,08,02,17,0.00
2012,08,08,02,18,0.00
2012,08,08,02,19,0.00
2012,08,08,02,20,0.00
2012,08,08,02,21,0.00
2012,08,08,02,22,0.00
2012,08,08,02,23,0.00
2012,08,08,02,24,0.00
2012,08,08,02,25,0.00
2012,08,08,02,26,0.00
2012,08,08,02,27,0.00
2012,08,08,02,28,0.00
2012,08,08,02,29,0.00
2012,08,08,02,30,0.00
2012,08,08,02,31,0.00
2012,08,08,02,32,0.00
2012,08,08,02,33,0.00
2012,08,08,02,34,0.00
2012,08,08,02,35,0.00
2012,08,08,02,36,0.00
2012,08,08,02,37,0.00
2012,08,08,02,38,0.00
2012,08,08,02,39,0.00
2012,08,08,02,40,0.00
2012,08,08,02,41,0.00
2012,08,08,02,42,0.00
2012,08,08,02,43,0.00
2012,08,08,02,44,0.00
2012,08,08,02,45,0.00
2012,08,08,02,46,0.00
2012,08,08,02,47,0.00
2012,08,08,02,48,0.00
2012,08,08,02,49,0.00
2012,08,08,02,50,0.00
2012,08,08,02,51,0.00
2012,08,08,02,52,0.00
2012,08,08,02,53,0.00
2012,08,08,02,54,0.00
2012,08,08,02,55,0.00
2012,08,08,02,56,0.00
2012,08,08,02,57,0.00
2012,08,08,02,58,0.00
2012,08,08,02,59,0.00
2012,08,08,03,00,0.00
2012,08,08,03,01,0.00
2012,08,08,03,02,0.00
2012,08,08,03,03,0.00
2012,08,08,03,04,0.00
2012,08,08,03,05,0.00
2012,08,08,03,06,0.00
2012,08,08,03,07,0.00
2012,08,08,03,08,0.00
2012,08,08,03,09,0.00
2012,08,08,03,10,0.00
2012,08,08,03,11,0.00
2012,08,08,03,12,0.00
2012,08,08,03,13,0.00
2012,08,08,03,14,0.00
2012,08,08,03,15,0.00
2012,08,08,03,16,0.00
2012,08,08,03,17,0.00
2012,08,08,03,18,0.00
2012,08,08,03,19,0.00
2012,08,08,03,20,0.00
2012,08,08,03,21,0.00
2012,08,08,03,22,0.00
2012,08,08,03,23,0.00
2012,08,08,03,24,0.00
2012,08,08,03,25,0.00
2012,08,08,03,26,0.00
2012,08,08,03,27,0.00
2012,08,08,03,28,0.00
2012,08,08,03,29,0.00
2012,08,08,03,30,0.00
2012,08,08,03,31,0.00
2012,08,08,03,32,0.00
2012,08,08,03,33,0.00
2012,08,08,03,34,0.00
2012,08,08,03,35,0.00
2012,08,08,03,36,0.00
2012,08,08,03,37,0.00
2012,08,08,03,38,0.00
2012,08,08,03,39,0.00
2012,08,08,03,40,0.00
2012,08,08,03,41,0.00
2012,08,08,03,42,0.00
2012,08,08,03,43,0.00
2012,08,08,03,44,0.00
2012,08,08,03,45,0.00
2012,08,08,03,46,0.00
2012,08,08,03,47,0.00
2012,08,08,03,48,0.00
2012,08,08,03,49,0.00
2012,08,08,03,50,0.00
2012,08,08,03,51,0.00
2012,08,08,03,52,0.00
2012,08,08,03,53,0.00
2012,08,08,03,54,0.00
2012,08,08,03,55,0.00
2012,08,08,03,56,0.00
2012,08,08,03,57,0.00
2012,08,08,03,58,0.00
2012,08,08,03,59,0.00
2012,08,08,04,00,0.00
2012,08,08,04,01,0.00
2012,08,08,04,02,0.00
2012,08,08,04,03,0.00
2012,08,08,04,04,0.00
2012,08,08,04,05,0.00
2012,08,08,04,06,0.00
2012,08,08,04,07,0.00
2012,08,08,04,08,0.00
2012,08,08,04,09,0.00
2012,08,08,04,10,0.00
2012,08,08,04,11,0.00
2012,08,08,04,12,0.00
2012,08,08,04,13,0.00
2012,08,08,04,14,0.00
2012,08,08,04,15,0.00
2012,08,08,04,16,0.00
2012,08,08,04,17,0.00
2012,08,08,04,18,0.00
2012,08,08,04,19,0.00
2012,08,08,04,20,0.00
2012,08,08,04,21,0.00
2012,08,08,04,22,0.00
2012,08,08,04,23,0.00
2012,08,08,04,24,0.00
2012,08,08,04,25,0.00
2012,08,08,04,26,0.00
2012,08,08,04,27,0.00
2012,08,08,04,28,0.00
2012,08,08,04,29,0.00
2012,08,08,04,30,0.00
2012,08,08,04,31,0.00
2012,08,08,04,32,0.00
2012,08,08,04,33,0.00
2012,08,08,04,34,0.00
2012,08,08,04,35,0.00
2012,08,08,04,36,0.00
2012,08,08,04,37,0.00
2012,08,08,04,38,0.00
2012,08,08,04,39,0.00
2012,08,08,04,40,0.00
2012,08,08,04,41,0.00
2012,08,08,04,42,0.00
2012,08,08,04,43,0.00
2012,08,08,04,44,0.00
2012,08,08,04,45,0.00
2012,08,08,04,46,0.00
2012,08,08,04,47,0.00
2012,08,08,04,48,0.00
2012,08,08,04,49,0.00
2012,08,08,04,50,0.00
2012,08,08,04,51,0.00
2012,08,08,04,52,0.00
2012,08,08,04,53,0.00
2012,08,08,04,54,0.00
2012,08,08,04,55,0.00
2012,08,08,04,56,0.00
2012,08,08,04,57,0.00
2012,08,08,04,58,0.00
2012,08,08,04,59,0.00
2012,08,08,05,00,0.00
2012,08,08,05,01,0.00
2012,08,08,05,02,0.00
2012,08,08,05,03,0.00
2012,08,08,05,04,0.00
2012,08,08,05,05,0.00
2012,08,08,05,06,0.00
2012,08,08,05,07,0.00
2012,08,08,05,08,0.00
2012,08,08,05,09,0.00
2012,08,08,05,10,0.00
2012,08,08,05,11,0.00
2012,08,08,05,12,0.00
2012,08,08,05,13,0.00
2012,08,08,05,14,0.00
2012,08,08,05,15,0.00
2012,08,08,05,16,0.00
2012,08,08,05,17,0.00
2012,08,08,05,18,0.00
2012,08,08,05,19,0.00
2012,08,08,05,20,0.00
2012,08,08,05,21,0.00
2012,08,08,05,22,0.00
2012,08,08,05,23,0.00
2012,08,08,05,24,0.00
2012,08,08,05,25,0.00
2012,08,08,05,26,0.00
2012,08,08,05,27,0.00
2012,08,08,05,28,0.00
2012,08,08,05,29,0.00
2012,08,08,05,30,0.00
2012,08,08,05,31,0.00
2012,08,08,05,32,0.00
2012,08,08,05,33,0.00
2012,08,08,05,34,0.00
2012,08,08,05,35,0.00
2012,08,08,05,36,0.00
2012,08,08,05,37,0.00
2012,08,08,05,38,0.00
2012,08,08,05,39,0.00
2012,08,08,05,40,0.00
2012,08,08,05,41,0.00
2012,08,08,05,42,0.00
2012,08,08,05,43,0.00
2012,08,08,05,44,0.00
2012,08,08,05,45,0.00
2012,08,08,05,46,0.00
2012,08,08,05,47,0.00
2012,08,08,05,48,0.00
2012,08,08,05,49,0.00
2012,08,08,05,50,0.00
2012,08,08,05,51,0.00
2012,08,08,05,52,0.00
2012,08,08,05,53,0.00
2012,08,08,05,54,0.00
2012,08,08,05,55,0.00
2012,08,08,05,56,0.00
2012,08,08,05,57,0.00
2012,08,08,05,58,0.00
2012,08,08,05,59,0.00
2012,08,08,06,00,0.00
2012,08,08,06,01,0.00
2012,08,08,06,02,0.00
2012,08,08,06,03,0.80
2012,08,08,06,04,5.00
2012,08,08,06,05,5.00
2012,08,08,06,06,5.00
2012,08,08,06,07,6.50
2012,08,08,06,08,7.00
2012,08,08,06,09,7.40
2012,08,08,06,10,9.00
2012,08,08,06,11,9.00
2012,08,08,06,12,10.20
2012,08,08,06,13,11.00
2012,08,08,06,14,11.10
2012,08,08,06,15,12.00
2012,08,08,06,16,12.70
2012,08,08,06,17,14.00
2012,08,08,06,18,14.00
2012,08,08,06,19,14.00
2012,08,08,06,20,14.00
2012,08,08,06,21,14.00
2012,08,08,06,22,14.00
2012,08,08,06,23,15.00
2012,08,08,06,24,16.00
2012,08,08,06,25,17.60
2012,08,08,06,26,18.00
2012,08,08,06,27,18.00
2012,08,08,06,28,18.00
2012,08,08,06,29,18.50
2012,08,08,06,30,19.00
2012,08,08,06,31,19.00
2012,08,08,06,32,19.00
2012,08,08,06,33,19.00
2012,08,08,06,34,19.00
2012,08,08,06,35,19.00
2012,08,08,06,36,20.30
2012,08,08,06,37,21.00
2012,08,08,06,38,20.70
2012,08,08,06,39,19.00
2012,08,08,06,40,19.00
2012,08,08,06,41,19.00
2012,08,08,06,42,19.00
2012,08,08,06,43,19.00
2012,08,08,06,44,21.00
2012,08,08,06,45,21.00
2012,08,08,06,46,21.00
2012,08,08,06,47,22.20
2012,08,08,06,48,23.00
2012,08,08,06,49,24.80
2012,08,08,06,50,25.50
2012,08,08,06,51,29.50
2012,08,08,06,52,35.80
2012,08,08,06,53,42.00
2012,08,08,06,54,46.10
2012,08,08,06,55,52.40
2012,08,08,06,56,54.80
2012,08,08,06,57,58.00
2012,08,08,06,58,55.80
2012,08,08,06,59,48.80
2012,08,08,07,00,44.40
2012,08,08,07,01,44.30
2012,08,08,07,02,50.20
2012,08,08,07,03,56.90
2012,08,08,07,04,62.50
2012,08,08,07,05,62.30
2012,08,08,07,06,62.80
2012,08,08,07,07,63.70
2012,08,08,07,08,71.50
2012,08,08,07,09,73.80
2012,08,08,07,10,65.00
2012,08,08,07,11,55.80
2012,08,08,07,12,47.30
2012,08,08,07,13,39.00
2012,08,08,07,14,34.50
2012,08,08,07,15,33.00
2012,08,08,07,16,64.90
2012,08,08,07,17,51.80
2012,08,08,07,18,35.00
2012,08,08,07,19,81.80
2012,08,08,07,20,54.00
2012,08,08,07,21,73.20
2012,08,08,07,22,129.20
2012,08,08,07,23,158.80
2012,08,08,07,24,157.50
2012,08,08,07,25,165.30
2012,08,08,07,26,168.20
2012,08,08,07,27,171.40
2012,08,08,07,28,173.20
2012,08,08,07,29,176.90
2012,08,08,07,30,178.90
2012,08,08,07,31,181.80
2012,08,08,07,32,188.70
2012,08,08,07,33,196.80
2012,08,08,07,34,197.80
2012,08,08,07,35,198.50
2012,08,08,07,36,203.10
2012,08,08,07,37,199.80
2012,08,08,07,38,212.80
2012,08,08,07,39,216.90
2012,08,08,07,40,219.30
2012,08,08,07,41,218.40
2012,08,08,07,42,221.10
2012,08,08,07,43,230.80
2012,08,08,07,44,235.10
2012,08,08,07,45,228.60
2012,08,08,07,46,238.60
2012,08,08,07,47,212.80
2012,08,08,07,48,257.20
2012,08,08,07,49,258.20
2012,08,08,07,50,251.80
2012,08,08,07,51,250.50
2012,08,08,07,52,258.10
2012,08,08,07,53,266.00
2012,08,08,07,54,266.70
2012,08,08,07,55,267.70
2012,08,08,07,56,284.80
2012,08,08,07,57,298.90
2012,08,08,07,58,303.40
2012,08,08,07,59,308.20
2012,08,08,08,00,238.40
2012,08,08,08,01,290.70
2012,08,08,08,02,296.80
2012,08,08,08,03,309.00
2012,08,08,08,04,309.00
2012,08,08,08,05,320.60
2012,08,08,08,06,335.00
2012,08,08,08,07,336.40
2012,08,08,08,08,362.40
2012,08,08,08,09,369.00
2012,08,08,08,10,307.50
2012,08,08,08,11,290.40
2012,08,08,08,12,348.40
2012,08,08,08,13,292.00
2012,08,08,08,14,276.20
2012,08,08,08,15,320.20
2012,08,08,08,16,356.50
2012,08,08,08,17,352.20
2012,08,08,08,18,374.00
2012,08,08,08,19,309.30
2012,08,08,08,20,184.00
2012,08,08,08,21,173.60
2012,08,08,08,22,158.40
2012,08,08,08,23,185.80
2012,08,08,08,24,161.80
2012,08,08,08,25,225.00
2012,08,08,08,26,205.50
2012,08,08,08,27,186.00
2012,08,08,08,28,338.00
2012,08,08,08,29,352.10
2012,08,08,08,30,137.00
2012,08,08,08,31,137.00
2012,08,08,08,32,153.00
2012,08,08,08,33,169.00
2012,08,08,08,34,169.00
2012,08,08,08,35,398.00
2012,08,08,08,36,366.30
2012,08,08,08,37,216.00
2012,08,08,08,38,174.00
2012,08,08,08,39,154.40
2012,08,08,08,40,146.00
2012,08,08,08,41,134.80
2012,08,08,08,42,143.80
2012,08,08,08,43,159.20
2012,08,08,08,44,165.00
2012,08,08,08,45,165.00
2012,08,08,08,46,131.00
2012,08,08,08,47,122.40
2012,08,08,08,48,140.50
2012,08,08,08,49,192.90
2012,08,08,08,50,227.00
2012,08,08,08,51,227.00
2012,08,08,08,52,185.60
2012,08,08,08,53,181.00
2012,08,08,08,54,181.00
2012,08,08,08,55,181.00
2012,08,08,08,56,181.00
2012,08,08,08,57,271.80
2012,08,08,08,58,332.60
2012,08,08,08,59,307.40
2012,08,08,09,00,197.20
2012,08,08,09,01,211.00
2012,08,08,09,02,230.00
2012,08,08,09,03,230.00
2012,08,08,09,04,205.20
2012,08,08,09,05,208.10
2012,08,08,09,06,216.00
2012,08,08,09,07,209.70
2012,08,08,09,08,204.00
2012,08,08,09,09,536.00
2012,08,08,09,10,619.00
2012,08,08,09,11,619.00
2012,08,08,09,12,627.40
2012,08,08,09,13,621.00
2012,08,08,09,14,599.00
2012,08,08,09,15,599.00
2012,08,08,09,16,573.50
2012,08,08,09,17,357.00
2012,08,08,09,18,357.00
2012,08,08,09,19,534.20
2012,08,08,09,20,682.60
2012,08,08,09,21,691.00
2012,08,08,09,22,578.30
2012,08,08,09,23,501.00
2012,08,08,09,24,501.00
2012,08,08,09,25,501.00
2012,08,08,09,26,468.10
2012,08,08,09,27,454.00
2012,08,08,09,28,491.90
2012,08,08,09,29,690.40
2012,08,08,09,30,682.00
2012,08,08,09,31,437.20
2012,08,08,09,32,285.80
2012,08,08,09,33,248.00
2012,08,08,09,34,236.50
2012,08,08,09,35,252.10
2012,08,08,09,36,253.90
2012,08,08,09,37,241.60
2012,08,08,09,38,227.80
2012,08,08,09,39,216.30
2012,08,08,09,40,201.60
2012,08,08,09,41,187.90
2012,08,08,09,42,176.50
2012,08,08,09,43,172.70
2012,08,08,09,44,175.00
2012,08,08,09,45,177.90
2012,08,08,09,46,179.40
2012,08,08,09,47,182.80
2012,08,08,09,48,189.00
2012,08,08,09,49,197.50
2012,08,08,09,50,207.10
2012,08,08,09,51,214.10
2012,08,08,09,52,218.00
2012,08,08,09,53,218.00
2012,08,08,09,54,215.90
2012,08,08,09,55,213.30
2012,08,08,09,56,213.00
2012,08,08,09,57,214.20
2012,08,08,09,58,216.00
2012,08,08,09,59,216.00
2012,08,08,10,00,216.00
2012,08,08,10,01,214.60
2012,08,08,10,02,214.00
2012,08,08,10,03,213.00
2012,08,08,10,04,213.00
2012,08,08,10,05,213.00
2012,08,08,10,06,213.00
2012,08,08,10,07,210.20
2012,08,08,10,08,207.30
2012,08,08,10,09,207.30
2012,08,08,10,10,209.60
2012,08,08,10,11,211.90
2012,08,08,10,12,213.00
2012,08,08,10,13,211.50
2012,08,08,10,14,211.00
2012,08,08,10,15,213.20
2012,08,08,10,16,214.60
2012,08,08,10,17,217.80
2012,08,08,10,18,220.60
2012,08,08,10,19,220.20
2012,08,08,10,20,218.10
2012,08,08,10,21,216.00
2012,08,08,10,22,216.60
2012,08,08,10,23,218.00
2012,08,08,10,24,218.00
2012,08,08,10,25,218.00
2012,08,08,10,26,218.20
2012,08,08,10,27,220.20
2012,08,08,10,28,222.50
2012,08,08,10,29,226.00
2012,08,08,10,30,228.30
2012,08,08,10,31,229.80
2012,08,08,10,32,234.10
2012,08,08,10,33,237.50
2012,08,08,10,34,239.00
2012,08,08,10,35,240.10
2012,08,08,10,36,241.00
2012,08,08,10,37,239.40
2012,08,08,10,38,235.70
2012,08,08,10,39,232.90
2012,08,08,10,40,230.00
2012,08,08,10,41,230.00
2012,08,08,10,42,229.30
2012,08,08,10,43,227.30
2012,08,08,10,44,225.10
2012,08,08,10,45,225.00
2012,08,08,10,46,225.80
2012,08,08,10,47,228.60
2012,08,08,10,48,231.40
2012,08,08,10,49,236.50
2012,08,08,10,50,241.40
2012,08,08,10,51,244.60
2012,08,08,10,52,247.90
2012,08,08,10,53,253.00
2012,08,08,10,54,257.20
2012,08,08,10,55,259.80
2012,08,08,10,56,260.00
2012,08,08,10,57,260.00
2012,08,08,10,58,260.00
2012,08,08,10,59,261.30
2012,08,08,11,00,262.00
2012,08,08,11,01,262.00
2012,08,08,11,02,262.40
2012,08,08,11,03,264.40
2012,08,08,11,04,267.20
2012,08,08,11,05,270.90
2012,08,08,11,06,275.20
2012,08,08,11,07,279.10
2012,08,08,11,08,282.60
2012,08,08,11,09,281.70
2012,08,08,11,10,285.00
2012,08,08,11,11,290.40
2012,08,08,11,12,297.60
2012,08,08,11,13,302.10
2012,08,08,11,14,304.50
2012,08,08,11,15,306.70
2012,08,08,11,16,308.50
2012,08,08,11,17,311.60
2012,08,08,11,18,315.40
2012,08,08,11,19,320.50
2012,08,08,11,20,324.10
2012,08,08,11,21,328.40
2012,08,08,11,22,331.20
2012,08,08,11,23,332.00
2012,08,08,11,24,333.80
2012,08,08,11,25,333.40
2012,08,08,11,26,328.70
2012,08,08,11,27,322.80
2012,08,08,11,28,317.10
2012,08,08,11,29,312.20
2012,08,08,11,30,311.00
2012,08,08,11,31,316.00
2012,08,08,11,32,324.40
2012,08,08,11,33,333.80
2012,08,08,11,34,338.00
2012,08,08,11,35,336.40
2012,08,08,11,36,330.50
2012,08,08,11,37,326.20
2012,08,08,11,38,321.40
2012,08,08,11,39,318.00
2012,08,08,11,40,312.80
2012,08,08,11,41,305.80
2012,08,08,11,42,303.90
2012,08,08,11,43,304.20
2012,08,08,11,44,313.20
2012,08,08,11,45,314.50
2012,08,08,11,46,311.00
2012,08,08,11,47,319.80
2012,08,08,11,48,322.00
2012,08,08,11,49,322.00
2012,08,08,11,50,322.00
2012,08,08,11,51,735.00
2012,08,08,11,52,1148.00
2012,08,08,11,53,1148.00
2012,08,08,11,54,916.80
2012,08,08,11,55,796.80
2012,08,08,11,56,471.40
2012,08,08,11,57,456.10
2012,08,08,11,58,441.70
2012,08,08,11,59,444.90
2012,08,08,12,00,424.00
2012,08,08,12,01,414.60
2012,08,08,12,02,406.00
2012,08,08,12,03,400.80
2012,08,08,12,04,399.00
2012,08,08,12,05,409.20
2012,08,08,12,06,420.80
2012,08,08,12,07,428.40
2012,08,08,12,08,438.50
2012,08,08,12,09,439.00
2012,08,08,12,10,439.00
2012,08,08,12,11,430.40
2012,08,08,12,12,426.70
2012,08,08,12,13,424.10
2012,08,08,12,14,418.00
2012,08,08,12,15,410.00
2012,08,08,12,16,406.50
2012,08,08,12,17,406.00
2012,08,08,12,18,406.80
2012,08,08,12,19,413.20
2012,08,08,12,20,428.10
2012,08,08,12,21,438.00
2012,08,08,12,22,473.20
2012,08,08,12,23,468.10
2012,08,08,12,24,472.90
2012,08,08,12,25,480.00
2012,08,08,12,26,452.50
2012,08,08,12,27,423.10
2012,08,08,12,28,418.00
2012,08,08,12,29,425.30
2012,08,08,12,30,438.20
2012,08,08,12,31,436.20
2012,08,08,12,32,427.30
2012,08,08,12,33,419.50
2012,08,08,12,34,411.10
2012,08,08,12,35,403.10
2012,08,08,12,36,401.50
2012,08,08,12,37,403.40
2012,08,08,12,38,404.00
2012,08,08,12,39,404.00
2012,08,08,12,40,398.10
2012,08,08,12,41,393.70
2012,08,08,12,42,391.50
2012,08,08,12,43,389.10
2012,08,08,12,44,388.00
2012,08,08,12,45,385.90
2012,08,08,12,46,383.30
2012,08,08,12,47,379.40
2012,08,08,12,48,375.40
2012,08,08,12,49,374.00
2012,08,08,12,50,375.20
2012,08,08,12,51,379.80
2012,08,08,12,52,386.40
2012,08,08,12,53,398.40
2012,08,08,12,54,405.90
2012,08,08,12,55,412.40
2012,08,08,12,56,419.20
2012,08,08,12,57,425.70
2012,08,08,12,58,430.30
2012,08,08,12,59,430.00
2012,08,08,13,00,437.30
2012,08,08,13,01,445.40
2012,08,08,13,02,452.20
2012,08,08,13,03,465.30
2012,08,08,13,04,504.60
2012,08,08,13,05,520.80
2012,08,08,13,06,520.20
2012,08,08,13,07,504.00
2012,08,08,13,08,492.60
2012,08,08,13,09,499.20
2012,08,08,13,10,527.00
2012,08,08,13,11,519.20
2012,08,08,13,12,549.80
2012,08,08,13,13,551.50
2012,08,08,13,14,528.90
2012,08,08,13,15,510.00
2012,08,08,13,16,510.00
2012,08,08,13,17,510.00
2012,08,08,13,18,510.00
2012,08,08,13,19,608.50
2012,08,08,13,20,689.00
2012,08,08,13,21,1013.20
2012,08,08,13,22,1074.00
2012,08,08,13,23,896.40
2012,08,08,13,24,455.90
2012,08,08,13,25,414.70
2012,08,08,13,26,387.00
2012,08,08,13,27,374.60
2012,08,08,13,28,394.80
2012,08,08,13,29,457.70
2012,08,08,13,30,511.80
2012,08,08,13,31,491.40
2012,08,08,13,32,419.80
2012,08,08,13,33,492.10
2012,08,08,13,34,581.50
2012,08,08,13,35,563.00
2012,08,08,13,36,563.00
2012,08,08,13,37,560.60
2012,08,08,13,38,559.00
2012,08,08,13,39,609.40
2012,08,08,13,40,588.20
2012,08,08,13,41,678.20
2012,08,08,13,42,724.00
2012,08,08,13,43,540.40
2012,08,08,13,44,485.10
2012,08,08,13,45,460.60
2012,08,08,13,46,475.80
2012,08,08,13,47,488.20
2012,08,08,13,48,485.00
2012,08,08,13,49,437.10
2012,08,08,13,50,404.50
2012,08,08,13,51,414.50
2012,08,08,13,52,536.00
2012,08,08,13,53,466.40
2012,08,08,13,54,380.40
2012,08,08,13,55,397.00
2012,08,08,13,56,397.00
2012,08,08,13,57,423.70
2012,08,08,13,58,664.00
2012,08,08,13,59,664.00
2012,08,08,14,00,664.00
2012,08,08,14,01,632.30
2012,08,08,14,02,621.00
2012,08,08,14,03,661.50
2012,08,08,14,04,883.50
2012,08,08,14,05,848.40
2012,08,08,14,06,830.10
2012,08,08,14,07,832.90
2012,08,08,14,08,847.20
2012,08,08,14,09,858.50
2012,08,08,14,10,869.30
2012,08,08,14,11,864.90
2012,08,08,14,12,870.00
2012,08,08,14,13,866.80
2012,08,08,14,14,857.30
2012,08,08,14,15,854.80
2012,08,08,14,16,839.80
2012,08,08,14,17,830.00
2012,08,08,14,18,819.80
2012,08,08,14,19,816.30
2012,08,08,14,20,814.50
2012,08,08,14,21,822.80
2012,08,08,14,22,853.60
2012,08,08,14,23,875.00
2012,08,08,14,24,878.60
2012,08,08,14,25,865.00
2012,08,08,14,26,869.30
2012,08,08,14,27,854.50
2012,08,08,14,28,848.00
2012,08,08,14,29,847.50
2012,08,08,14,30,849.00
2012,08,08,14,31,849.00
2012,08,08,14,32,853.40
2012,08,08,14,33,885.30
2012,08,08,14,34,845.20
2012,08,08,14,35,824.40
2012,08,08,14,36,823.00
2012,08,08,14,37,823.00
2012,08,08,14,38,820.90
2012,08,08,14,39,805.60
2012,08,08,14,40,792.80
2012,08,08,14,41,779.60
2012,08,08,14,42,774.00
2012,08,08,14,43,772.50
2012,08,08,14,44,776.20
2012,08,08,14,45,786.70
2012,08,08,14,46,801.00
2012,08,08,14,47,761.10
2012,08,08,14,48,724.00
2012,08,08,14,49,724.00
2012,08,08,14,50,486.60
2012,08,08,14,51,564.00
2012,08,08,14,52,564.00
2012,08,08,14,53,550.20
2012,08,08,14,54,480.60
2012,08,08,14,55,459.00
2012,08,08,14,56,969.00
2012,08,08,14,57,816.20
2012,08,08,14,58,452.60
2012,08,08,14,59,384.80
2012,08,08,15,00,354.00
2012,08,08,15,01,360.20
2012,08,08,15,02,393.20
2012,08,08,15,03,371.40
2012,08,08,15,04,385.90
2012,08,08,15,05,382.80
2012,08,08,15,06,400.50
2012,08,08,15,07,400.50
2012,08,08,15,08,381.00
2012,08,08,15,09,385.50
2012,08,08,15,10,396.60
2012,08,08,15,11,415.20
2012,08,08,15,12,424.00
2012,08,08,15,13,424.90
2012,08,08,15,14,434.50
2012,08,08,15,15,404.20
2012,08,08,15,16,375.40
2012,08,08,15,17,351.60
2012,08,08,15,18,334.60
2012,08,08,15,19,323.50
2012,08,08,15,20,321.00
2012,08,08,15,21,318.20
2012,08,08,15,22,331.20
2012,08,08,15,23,352.40
2012,08,08,15,24,378.20
2012,08,08,15,25,432.30
2012,08,08,15,26,395.60
2012,08,08,15,27,375.80
2012,08,08,15,28,362.40
2012,08,08,15,29,349.90
2012,08,08,15,30,337.50
2012,08,08,15,31,326.70
2012,08,08,15,32,323.70
2012,08,08,15,33,317.80
2012,08,08,15,34,309.60
2012,08,08,15,35,304.50
2012,08,08,15,36,304.00
2012,08,08,15,37,304.80
2012,08,08,15,38,310.20
2012,08,08,15,39,318.50
2012,08,08,15,40,329.60
2012,08,08,15,41,356.50
2012,08,08,15,42,372.40
2012,08,08,15,43,351.40
2012,08,08,15,44,341.50
2012,08,08,15,45,330.50
2012,08,08,15,46,323.80
2012,08,08,15,47,316.50
2012,08,08,15,48,306.50
2012,08,08,15,49,297.00
2012,08,08,15,50,293.50
2012,08,08,15,51,282.50
2012,08,08,15,52,273.60
2012,08,08,15,53,265.40
2012,08,08,15,54,258.20
2012,08,08,15,55,255.00
2012,08,08,15,56,255.70
2012,08,08,15,57,259.50
2012,08,08,15,58,265.20
2012,08,08,15,59,272.90
2012,08,08,16,00,279.50
2012,08,08,16,01,292.80
2012,08,08,16,02,314.60
2012,08,08,16,03,323.00
2012,08,08,16,04,322.30
2012,08,08,16,05,324.50
2012,08,08,16,06,332.50
2012,08,08,16,07,348.00
2012,08,08,16,08,353.60
2012,08,08,16,09,367.20
2012,08,08,16,10,421.40
2012,08,08,16,11,423.60
2012,08,08,16,12,386.00
2012,08,08,16,13,378.20
2012,08,08,16,14,410.60
2012,08,08,16,15,443.00
2012,08,08,16,16,431.20
2012,08,08,16,17,386.30
2012,08,08,16,18,434.00
2012,08,08,16,19,434.00
2012,08,08,16,20,434.00
2012,08,08,16,21,434.00
2012,08,08,16,22,434.00
2012,08,08,16,23,429.20
2012,08,08,16,24,338.20
2012,08,08,16,25,333.30
2012,08,08,16,26,335.50
2012,08,08,16,27,343.90
2012,08,08,16,28,371.30
2012,08,08,16,29,367.90
2012,08,08,16,30,391.80
2012,08,08,16,31,423.50
2012,08,08,16,32,393.50
2012,08,08,16,33,403.60
2012,08,08,16,34,460.60
2012,08,08,16,35,445.00
2012,08,08,16,36,399.70
2012,08,08,16,37,376.00
2012,08,08,16,38,376.00
2012,08,08,16,39,376.00
2012,08,08,16,40,301.10
2012,08,08,16,41,281.00
2012,08,08,16,42,276.50
2012,08,08,16,43,272.00
2012,08,08,16,44,275.50
2012,08,08,16,45,289.20
2012,08,08,16,46,294.00
2012,08,08,16,47,309.60
2012,08,08,16,48,403.00
2012,08,08,16,49,403.00
2012,08,08,16,50,403.00
2012,08,08,16,51,619.30
2012,08,08,16,52,708.60
2012,08,08,16,53,701.00
2012,08,08,16,54,698.50
2012,08,08,16,55,696.60
2012,08,08,16,56,646.40
2012,08,08,16,57,610.00
2012,08,08,16,58,360.10
2012,08,08,16,59,341.50
2012,08,08,17,00,355.00
2012,08,08,17,01,355.00
2012,08,08,17,02,355.00
2012,08,08,17,03,355.00
2012,08,08,17,04,469.30
2012,08,08,17,05,443.00
2012,08,08,17,06,294.60
2012,08,08,17,07,336.20
2012,08,08,17,08,414.40
2012,08,08,17,09,446.00